This is the latest recevied weather packets stored in our database for station/object W2OBX. If no packets are shown the sender has not sent any weather packets the latest 10 day(s).
| Time | Temp. | Humidity | Pressure | Rain* | Wind** | Luminosity | Snow |
|---|---|---|---|---|---|---|---|
| 1777820691 | 12.22° C | 50% | 1022.1 hPa | 0 mm | - | 41 W/m² | - |
| 1777820386 | 12.22° C | 50% | 1022.1 hPa | 0 mm | - | 22 W/m² | - |
| 1777820084 | 11.67° C | 50% | 1022.3 hPa | 0 mm | - | 94 W/m² | - |
| 1777819782 | 12.22° C | 51% | 1022.3 hPa | 0 mm | - | 23 W/m² | - |
| 1777819479 | 11.67° C | 51% | 1022.1 hPa | 0 mm | - | 20 W/m² | - |
| 1777819177 | 11.67° C | 52% | 1022 hPa | 0 mm | - | 20 W/m² | - |
| 1777818868 | 11.67° C | 56% | 1022.2 hPa | 0 mm | - | 20 W/m² | - |
| 1777818564 | 11.67° C | 58% | 1022.2 hPa | 0 mm | - | 19 W/m² | - |
| 1777818262 | 11.11° C | 60% | 1022.3 hPa | 0 mm | - | 19 W/m² | - |
| 1777817957 | 11.11° C | 55% | 1022.3 hPa | 0 mm | - | 21 W/m² | - |
| 1777817655 | 11.11° C | 58% | 1022.3 hPa | 0 mm | - | 18 W/m² | - |
| 1777817352 | 11.11° C | 56% | 1022.4 hPa | 0 mm | - | 18 W/m² | - |
| 1777817049 | 10.56° C | 54% | 1022.2 hPa | 0 mm | - | 19 W/m² | - |
| 1777816744 | 10.56° C | 54% | 1022.2 hPa | 0 mm | - | 38 W/m² | - |
| 1777816443 | 10.56° C | 53% | 1022.2 hPa | 0 mm | - | 20 W/m² | - |
| 1777816140 | 10° C | 59% | 1022.1 hPa | 0 mm | - | 16 W/m² | - |
| 1777815837 | 10° C | 57% | 1022.2 hPa | 0 mm | - | 16 W/m² | - |
| 1777815535 | 10° C | 60% | 1022.3 hPa | 0 mm | - | 16 W/m² | - |
| 1777815232 | 10° C | 64% | 1022.1 hPa | 0 mm | - | 16 W/m² | - |
| 1777814928 | 10° C | 60% | 1022.2 hPa | 0 mm | - | 47 W/m² | - |
| 1777814625 | 9.44° C | 56% | 1022.1 hPa | 0 mm | - | 15 W/m² | - |
| 1777814322 | 9.44° C | 67% | 1022 hPa | 0 mm | - | 14 W/m² | - |
| 1777814018 | 8.89° C | 70% | 1022 hPa | 0 mm | - | 14 W/m² | - |
| 1777813716 | 8.89° C | 78% | 1022.2 hPa | 0 mm | - | 25 W/m² | - |
| 1777813413 | 8.33° C | 77% | 1022.1 hPa | 0 mm | - | 13 W/m² | - |
* Rain latest hour (hover to see other rain measurements)
** Current wind speed in m/s (hover to see current wind gust speed)